Probability
0 0 0 0 0 0 0 0 0 0 0 0 0 0 0 0 0 0 0 0 0 0 0 0 0 0 0 0 1 2 4 4 3 3 1 0 1 2 2 3 3 3 2 1
0 0 0 0 0 0 0 0 0 0 0 0 0 0 0 0 0 0 0 0 0 0 0 0 0 0 0 0 1 3 4 4 4 3 2 1 0 1 1 2 2 2 1 0
0 0 0 0 0 0 0 0 0 0 0 0 0 0 0 0 0 0 0 0 0 0 0 0 0 0 0 1 2 3 3 4 4 4 3 1 0 0 0 1 1 1 0 0
0 0 0 0 0 0 0 0 0 0 0 0 0 0 0 0 0 0 0 0 0 0 0 0 0 0 0 1 2 2 3 3 4 3 2 2 1 0 0 0 0 0 0 1
0 0 0 0 0 0 0 0 0 0 0 0 0 0 0 0 0 0 0 0 0 0 0 0 0 0 0 0 1 1 1 2 2 1 1 1 1 0 0 0 0 1 1 2
0 0 0 0 0 0 0 0 0 0 0 0 0 0 0 0 0 0 0 0 0 0 0 0 0 0 0 0 0 0 0 0 0 0 0 0 0 0 0 1 1 2 3 3
0 0 0 0 0 0 0 0 0 0 0 0 0 0 0 0 0 0 0 0 0 0 0 0 0 0 0 0 0 0 0 0 0 0 0 0 0 0 0 1 2 3 3 3
0 0 0 0 0 0 0 0 0 0 0 0 0 0 0 0 0 0 0 0 0 0 0 0 0 0 0 0 0 0 0 0 0 0 0 0 0 0 0 0 1 3 3 3
0 0 0 0 0 0 0 0 0 0 0 0 0 0 0 0 0 0 0 0 0 0 0 0 0 0 0 0 0 0 0 0 0 0 0 0 0 0 0 0 1 2 2 2
0 0 0 0 0 0 0 0 0 0 0 0 0 0 0 0 0 0 0 0 0 0 0 0 0 0 0 0 0 0 0 0 0 0 0 0 0 0 0 0 0 1 1 1
0 0 0 0 0 0 0 0 0 0 0 0 0 0 0 0 0 0 0 0 0 0 0 0 0 0 0 0 0 0 0 0 0 0 0 0 0 0 0 0 0 0 0 0
0 0 0 0 0 0 0 0 0 0 0 0 0 0 0 0 0 0 0 0 0 0 0 0 0 0 0 0 0 0 0 0 0 0 0 0 0 0 0 0 0 0 0 0
0 0 0 0 0 0 0 0 0 0 0 0 0 0 0 0 0 0 0 0 0 0 0 0 0 0 0 0 0 0 0 0 0 0 0 0 0 0 0 0 0 0 0 0
0 0 0 0 0 0 0 0 0 0 0 0 0 0 0 0 0 0 0 0 0 0 0 0 0 0 0 0 0 0 0 0 0 0 0 0 0 0 0 0 0 0 0 0
0 0 0 0 0 0 0 0 0 0 0 0 0 0 0 0 0 0 0 0 0 0 0 0 0 0 0 0 0 0 0 0 0 0 0 0 0 0 0 0 0 0 0 0
0 0 0 0 0 0 0 0 0 0 0 0 0 0 0 0 0 0 0 0 0 0 0 0 0 0 0 0 0 0 0 0 0 0 0 0 0 0 0 0 0 0 0 0
0 0 0 0 0 0 0 0 0 0 0 0 0 0 0 0 0 0 0 0 0 0 0 0 0 0 0 0 0 0 0 0 0 0 0 0 0 0 0 0 0 0 0 0
0 0 0 0 0 0 0 0 0 0 0 0 0 0 0 0 0 0 0 0 0 0 0 0 0 0 0 0 0 0 0 0 0 0 0 0 0 0 0 0 0 0 0 0
0 0 0 0 0 0 0 0 0 0 0 0 0 0 0 0 0 0 0 0 0 0 0 0 0 0 0 0 0 0 0 0 0 0 0 0 0 0 0 0 0 0 0 0
0 0 0 0 0 0 0 0 0 0 0 0 0 0 0 0 0 0 0 0 0 0 0 0 0 0 0 0 0 0 0 0 0 0 0 0 0 0 0 0 0 0 0 0
0 0 0 0 0 0 0 0 0 0 0 0 0 0 0 0 0 0 0 0 0 0 0 0 0 0 0 0 0 0 0 0 0 0 0 0 0 0 0 0 0 0 0 0
0 0 0 0 0 0 0 0 0 0 0 0 0 0 0 0 0 0 0 0 0 0 0 0 0 0 0 0 0 0 0 0 0 0 0 0 0 0 0 0 0 0 0 0
0 0 0 0 0 0 0 0 0 0 0 0 0 0 0 0 0 0 0 0 0 0 0 0 0 0 0 0 0 0 0 0 0 0 0 0 0 0 0 0 0 0 0 0
0 0 0 0 0 0 0 0 0 0 0 0 0 0 0 0 0 0 0 0 0 0 0 0 0 0 0 0 0 0 0 0 0 0 0 0 0 0 0 0 0 0 0 0
0 0 0 0 0 0 0 0 0 0 0 0 0 0 0 0 0 0 0 0 0 0 0 0 0 0 0 0 0 0 0 0 0 0 0 0 0 0 0 0 0 0 0 0
0 0 0 0 0 0 0 0 0 0 0 0 0 0 0 0 0 0 0 0 0 0 0 0 0 0 0 0 0 0 0 0 0 0 0 0 0 0 0 0 0 0 0 0
0 0 0 0 0 0 0 0 0 0 0 0 0 0 0 0 0 0 0 0 0 0 0 0 0 0 0 0 0 0 0 0 0 0 0 0 0 0 0 0 0 0 0 0
Wind_Speed
6 6 4 7 8 7 9 10 10 10 11 13 9 7 7 7 6 6 6 6 7 7 7 6 6 5 4 4 4 3 3 4 4 4 4 4 4 4 4 4 4 4 4 4
5 5 5 9 10 11 11 10 11 12 15 11 7 4 5 6 6 7 7 7 7 8 8 6 6 5 5 4 3 3 3 4 3 4 4 4 4 3 3 3 3 3 4 4
5 5 5 10 10 10 8 8 8 12 12 7 6 7 6 6 7 7 7 7 8 8 7 6 6 5 5 4 3 2 3 3 3 3 4 4 3 2 3 3 3 3 4 4
2 2 8 8 3 6 7 8 8 8 7 7 8 8 7 5 5 6 7 7 7 7 6 6 5 4 4 4 3 2 2 3 3 3 3 3 2 2 2 2 2 3 3 3
2 3 10 8 3 4 5 7 6 8 9 7 5 5 5 4 4 5 6 6 6 6 5 5 5 4 4 3 3 3 3 3 3 3 3 2 2 2 2 2 2 2 2 2
3 4 8 6 2 1 2 6 5 5 7 5 1 3 6 4 5 6 5 4 4 4 4 4 4 3 3 3 3 3 4 3 3 3 2 3 3 3 2 2 2 2 2 2
6 6 11 7 2 2 3 7 3 3 5 4 5 6 5 5 5 5 4 5 4 3 3 4 4 3 3 3 4 4 3 3 3 2 2 2 2 2 1 1 1 1 1 2
6 6 11 3 4 5 7 3 2 3 3 3 5 5 5 5 5 5 4 4 4 3 4 4 4 2 3 4 4 3 3 3 3 3 2 2 1 1 1 1 1 1 1 2
10 9 4 4 5 4 2 3 3 3 3 3 4 4 4 4 4 4 4 4 4 3 4 4 4 3 3 5 4 4 3 3 3 3 2 2 1 1 1 1 1 1 1 1
6 9 6 5 5 4 3 4 4 4 3 2 3 4 4 4 4 4 4 4 4 4 4 5 5 4 3 4 3 3 3 3 3 2 3 3 2 2 1 1 1 1 1 1
7 7 5 4 4 5 4 4 3 3 3 3 3 3 3 4 4 4 4 3 3 3 4 5 5 4 4 3 3 3 3 3 3 3 3 3 3 2 2 2 2 2 2 2
8 6 4 4 3 2 3 4 4 3 3 3 3 3 3 3 3 3 3 3 4 4 4 5 4 4 4 3 2 2 3 3 3 2 2 2 2 3 4 3 3 3 3 3
6 3 3 4 3 2 3 4 4 3 4 4 3 3 2 3 3 3 3 3 4 4 4 4 4 4 4 3 2 2 2 2 2 2 2 2 2 2 3 4 4 4 3 3
5 3 4 4 4 4 4 3 3 2 3 3 2 2 2 2 3 3 4 4 4 4 4 3 3 4 4 3 2 2 2 2 2 2 2 2 2 2 2 2 3 3 4 4
6 5 5 4 3 3 2 2 2 3 3 2 2 2 2 3 4 4 4 3 3 3 3 3 3 4 4 3 2 2 2 2 2 2 2 2 2 2 1 2 2 2 2 3
5 4 4 4 4 4 3 2 3 4 3 3 3 3 3 3 4 4 4 3 2 3 4 3 3 4 3 2 2 1 2 3 3 2 2 2 2 1 1 1 1 1 2 2
4 5 5 5 5 5 4 4 4 4 3 3 4 3 3 3 3 4 4 3 3 3 3 3 3 3 2 2 1 1 1 2 3 2 2 2 2 1 1 1 1 1 2 2
7 7 6 5 5 5 4 4 4 3 4 4 3 2 2 3 4 4 4 4 3 3 3 3 3 2 2 2 1 1 1 1 1 1 1 1 2 1 1 1 1 2 2 2
4 4 4 4 4 4 4 4 4 3 3 3 2 3 3 4 4 4 3 3 3 4 4 3 4 2 2 2 2 1 1 1 1 1 1 2 2 1 1 1 1 2 2 2
3 3 3 3 3 3 3 3 3 2 2 2 2 2 3 3 3 3 3 3 3 3 3 3 3 2 2 2 2 0 0 1 1 1 1 1 1 1 1 2 2 2 2 2
3 2 2 2 2 2 3 3 2 3 3 2 2 3 4 4 3 2 2 4 4 3 3 4 2 2 2 2 2 1 1 1 1 1 1 1 1 1 1 2 2 2 2 2
2 2 2 2 2 3 3 2 2 3 2 2 3 3 3 3 3 3 3 4 4 4 2 2 2 2 3 3 1 1 1 1 1 1 1 1 1 2 2 2 2 2 2 2
3 3 2 2 2 2 2 2 2 2 3 3 3 3 3 3 2 3 4 3 2 4 3 2 3 4 4 2 1 1 1 1 1 2 2 2 2 2 2 2 2 2 2 2
3 2 2 2 1 1 2 3 2 2 2 3 3 3 3 2 2 3 3 4 4 4 2 3 4 4 3 1 1 1 1 1 2 2 2 2 2 2 2 2 2 2 2 2
3 3 2 2 2 2 3 2 2 2 2 2 2 3 2 2 3 3 2 2 3 3 2 3 4 4 2 1 1 1 1 2 2 2 2 2 2 2 2 2 2 2 2 2
3 3 3 3 3 3 2 2 2 2 2 2 3 2 2 2 2 2 2 2 2 2 2 2 2 2 2 2 2 2 2 3 3 2 2 2 2 2 2 2 3 3 2 2
2 2 2 2 2 3 2 2 2 3 2 3 3 3 2 2 1 1 1 1 1 1 2 2 2 2 2 2 2 2 2 2 2 2 2 2 2 2 3 3 3 3 2 2
Wind_Direction
257 265 250 241 239 223 217 216 222 244 249 264 267 265 271 277 282 294 300 304 304 304 303 296 293 291 285 281 274 266 264 266 265 266 264 259 255 247 238 231 234 232 234 238
277 269 264 264 249 232 234 234 240 257 266 265 277 277 275 275 280 285 289 293 297 301 302 295 287 286 288 288 282 266 258 267 274 273 270 265 253 244 244 241 237 234 232 238
270 301 317 270 234 211 219 220 211 234 251 280 288 278 267 267 268 269 279 286 291 292 293 295 293 289 288 284 285 277 270 278 277 268 271 269 261 246 246 250 242 236 238 239
265 349 250 246 211 199 218 241 226 240 261 260 260 272 270 255 248 269 285 287 288 291 297 302 300 301 300 302 305 303 301 297 295 281 273 276 271 258 255 252 245 243 243 241
183 251 276 287 244 185 208 262 229 237 258 275 296 308 288 267 276 271 277 278 281 287 293 300 305 304 305 308 313 317 307 302 300 285 269 275 272 271 272 266 258 253 257 248
179 220 249 257 253 204 131 274 252 229 250 268 319 296 281 302 306 302 305 301 299 300 303 304 307 316 312 313 313 304 306 307 302 294 274 270 265 266 274 261 258 267 277 263
203 233 262 259 247 114 180 253 278 239 243 231 219 236 277 303 303 304 309 312 317 318 314 308 314 326 323 320 309 307 313 314 309 303 290 272 269 273 275 273 268 266 273 282
183 214 252 229 147 188 227 263 265 262 250 239 249 271 291 298 303 315 322 326 329 327 321 323 327 332 327 316 314 325 329 330 331 330 313 300 291 323 316 269 278 279 298 314
198 218 242 188 203 227 223 248 257 258 263 248 263 277 288 299 311 316 317 318 321 320 323 331 334 334 321 320 330 338 342 339 336 339 337 333 330 336 1 356 290 294 297 303
245 259 253 244 252 263 244 245 263 267 267 244 259 275 288 297 307 314 315 315 320 327 328 328 332 331 319 325 339 347 344 339 346 354 347 351 351 349 344 332 323 310 294 280
249 268 295 280 252 258 265 271 281 284 274 257 254 275 278 288 298 303 309 314 321 319 315 316 326 330 332 338 350 354 347 346 354 357 354 358 359 355 340 323 285 282 278 266
237 240 219 260 279 257 254 267 267 274 287 282 251 260 272 280 289 299 308 316 321 320 318 319 328 329 335 340 351 353 345 350 350 347 349 352 354 357 9 352 351 337 315 304
240 252 225 256 281 265 254 264 267 259 257 275 277 262 264 279 289 298 303 308 305 303 307 315 325 328 330 335 346 348 337 335 337 342 342 343 345 343 349 2 12 12 12 9
247 253 265 261 261 271 267 270 270 274 268 264 268 277 275 287 296 299 294 292 295 301 309 316 325 325 326 332 343 343 334 329 336 335 333 335 337 336 343 346 351 4 17 21
246 230 236 258 272 280 282 288 299 293 295 299 294 294 293 293 292 294 297 302 308 312 313 322 326 320 325 332 341 338 332 329 335 337 338 338 340 346 353 352 357 354 1 8
248 246 245 250 258 266 274 275 272 276 281 285 290 291 288 287 291 297 302 306 306 306 308 309 306 309 319 326 333 335 332 333 340 343 350 351 347 348 353 353 354 352 345 340
230 243 242 250 254 258 256 255 255 264 270 273 276 283 293 299 303 303 304 304 293 290 291 290 294 306 317 319 319 317 326 329 340 354 356 343 338 333 333 338 337 333 325 320
227 234 231 231 239 251 262 265 262 261 262 269 280 286 284 281 282 288 296 304 310 313 303 294 298 312 317 314 309 310 315 315 325 336 338 336 335 336 337 332 324 319 325 332
238 239 243 243 239 236 245 256 261 263 269 272 270 271 272 271 276 286 297 304 302 302 304 310 322 338 315 310 323 314 308 306 316 329 333 327 338 338 329 317 314 317 320 323
255 253 247 249 247 237 243 255 260 267 268 262 264 277 287 288 289 291 294 285 272 270 285 300 312 312 305 301 330 317 271 278 296 313 318 309 309 311 307 305 310 311 309 305
255 262 259 253 257 251 241 240 241 257 271 259 250 259 270 282 283 277 280 289 292 288 295 308 318 305 304 306 326 319 284 277 288 288 286 283 285 289 288 293 300 298 293 290
243 248 255 253 251 263 265 250 240 249 262 265 262 262 270 281 285 282 264 260 276 295 307 292 290 293 304 314 319 320 299 284 279 277 275 273 269 272 274 279 283 287 287 285
240 237 239 243 242 256 284 278 257 247 250 257 258 259 259 260 256 259 281 280 279 293 301 279 289 302 315 332 324 306 295 288 282 274 271 270 265 264 267 269 270 272 274 276
234 232 234 239 228 235 269 278 279 269 260 264 261 257 253 263 270 253 253 283 296 302 298 292 302 308 327 341 312 298 293 290 282 275 270 267 263 261 261 263 269 271 268 267
229 228 222 212 221 239 247 260 280 281 280 279 275 273 260 237 244 265 268 268 282 305 309 304 306 313 325 303 286 281 278 271 274 278 273 272 266 261 258 259 263 268 268 264
227 228 229 228 227 230 232 232 247 260 266 281 288 287 281 266 253 261 270 272 266 291 301 294 291 301 300 289 283 282 280 285 289 285 274 269 266 263 262 262 264 262 261 260
234 235 233 242 241 227 223 227 238 250 250 255 275 280 282 284 277 275 279 287 288 288 287 289 288 285 286 283 282 280 279 277 275 272 270 266 263 262 264 262 261 258 257 258